Hourly Weather Lug

Today, 20 June, Sunday

Time Temperature Precipitation Wind Pressure Humidity
00:00 +21°C° 0 mm 3 mps 746 mmHg 81%
01:00 +21°C° 0 mm 3 mps 746 mmHg 82%
02:00 +20°C° 0 mm 3 mps 746 mmHg 82%
03:00 +20°C° 0 mm 3 mps 745 mmHg 83%
04:00 +19°C° 0 mm 3 mps 745 mmHg 83%
05:00 +21°C° 0 mm 4 mps 745 mmHg 77%
06:00 +22°C° 0 mm 4 mps 746 mmHg 72%
07:00 +25°C° 0 mm 4 mps 746 mmHg 66%
08:00 +26°C° 0 mm 4 mps 746 mmHg 61%
09:00 +27°C° 0 mm 5 mps 746 mmHg 55%
10:00 +29°C° 0 mm 5 mps 746 mmHg 50%
11:00 +30°C° 0 mm 5 mps 745 mmHg 47%
12:00 +30°C° 0 mm 4 mps 745 mmHg 44%
13:00 +32°C° 0 mm 4 mps 745 mmHg 41%
14:00 +32°C° 0 mm 4 mps 745 mmHg 42%
15:00 +32°C° 0 mm 4 mps 744 mmHg 43%
16:00 +32°C° 0 mm 4 mps 744 mmHg 44%
17:00 +30°C° 0 mm 4 mps 744 mmHg 52%
18:00 +28°C° 0 mm 4 mps 743 mmHg 59%
19:00 +26°C° 0 mm 4 mps 743 mmHg 66%
20:00 +25°C° 0 mm 4 mps 743 mmHg 68%
21:00 +25°C° 0 mm 4 mps 743 mmHg 70%
22:00 +23°C° 0 mm 4 mps 743 mmHg 71%
23:00 +22°C° 0 mm 4 mps 743 mmHg 75%

Tomorrow, 21 June, Monday

Time Temperature Precipitation Wind Pressure Humidity
00:00 +21°C° 0 mm 4 mps 743 mmHg 79%
01:00 +20°C° 0 mm 3 mps 743 mmHg 83%
02:00 +20°C° 0 mm 3 mps 742 mmHg 84%
03:00 +20°C° 0 mm 3 mps 742 mmHg 85%
04:00 +19°C° 0 mm 3 mps 742 mmHg 86%
05:00 +21°C° 0 mm 3 mps 742 mmHg 81%
06:00 +22°C° 0 mm 4 mps 742 mmHg 76%
07:00 +23°C° 0 mm 4 mps 742 mmHg 71%
08:00 +26°C° 0 mm 4 mps 742 mmHg 66%
09:00 +28°C° 0 mm 4 mps 742 mmHg 60%
10:00 +29°C° 0 mm 3 mps 742 mmHg 55%
11:00 +30°C° 0 mm 3 mps 742 mmHg 52%
12:00 +31°C° 0 mm 2 mps 742 mmHg 48%
13:00 +32°C° 0 mm 2 mps 741 mmHg 45%
14:00 +32°C° 0 mm 2 mps 741 mmHg 45%
15:00 +32°C° 0 mm 2 mps 741 mmHg 44%
16:00 +33°C° 0 mm 3 mps 741 mmHg 44%
17:00 +30°C° 0.4 mm 3 mps 741 mmHg 54%
18:00 +28°C° 0.4 mm 4 mps 741 mmHg 65%
19:00 +25°C° 0.4 mm 4 mps 742 mmHg 76%
20:00 +23°C° 4.7 mm 4 mps 742 mmHg 82%
21:00 +22°C° 4.7 mm 4 mps 742 mmHg 88%
22:00 +20°C° 4.7 mm 3 mps 742 mmHg 94%
23:00 +20°C° 0.1 mm 3 mps 742 mmHg 93%

Day after tomorrow, 22 June, Tuesday

Time Temperature Precipitation Wind Pressure Humidity
00:00 +20°C° 0.1 mm 2 mps 742 mmHg 92%
01:00 +21°C° 0.1 mm 1 mps 742 mmHg 91%
02:00 +20°C° 0 mm 2 mps 742 mmHg 92%
03:00 +19°C° 0 mm 2 mps 743 mmHg 93%
04:00 +19°C° 0 mm 2 mps 743 mmHg 95%
05:00 +20°C° 0 mm 2 mps 743 mmHg 90%
06:00 +21°C° 0 mm 2 mps 743 mmHg 86%
07:00 +23°C° 0 mm 2 mps 744 mmHg 82%
08:00 +24°C° 0 mm 3 mps 744 mmHg 77%
09:00 +25°C° 0 mm 3 mps 744 mmHg 71%
10:00 +27°C° 0 mm 3 mps 744 mmHg 66%
11:00 +27°C° 0 mm 3 mps 744 mmHg 64%
12:00 +28°C° 0 mm 3 mps 744 mmHg 62%
13:00 +28°C° 0 mm 3 mps 744 mmHg 61%
14:00 +28°C° 0 mm 3 mps 744 mmHg 61%
15:00 +28°C° 0 mm 3 mps 744 mmHg 61%
16:00 +28°C° 0 mm 3 mps 744 mmHg 61%
17:00 +27°C° 0 mm 3 mps 745 mmHg 66%
18:00 +26°C° 0 mm 3 mps 745 mmHg 71%
19:00 +26°C° 0 mm 3 mps 745 mmHg 76%
20:00 +24°C° 0.2 mm 3 mps 745 mmHg 79%
21:00 +23°C° 0.2 mm 2 mps 745 mmHg 82%
22:00 +21°C° 0.2 mm 2 mps 745 mmHg 85%
23:00 +21°C° 0.1 mm 2 mps 745 mmHg 87%

23 June, Wednesday

Time Temperature Precipitation Wind Pressure Humidity
00:00 +21°C° 0.1 mm 2 mps 746 mmHg 89%
01:00 +20°C° 0.1 mm 2 mps 746 mmHg 92%
02:00 +20°C° 0.1 mm 2 mps 746 mmHg 94%
03:00 +19°C° 0.1 mm 3 mps 746 mmHg 95%
04:00 +19°C° 0.1 mm 3 mps 746 mmHg 97%
05:00 +19°C° 0.6 mm 3 mps 746 mmHg 95%
06:00 +20°C° 0.6 mm 3 mps 747 mmHg 92%
07:00 +20°C° 0.6 mm 3 mps 747 mmHg 89%
08:00 +22°C° 0.2 mm 3 mps 747 mmHg 85%
09:00 +24°C° 0.2 mm 3 mps 748 mmHg 81%
10:00 +25°C° 0.2 mm 3 mps 748 mmHg 77%
11:00 +26°C° 0.1 mm 3 mps 748 mmHg 74%
12:00 +26°C° 0.1 mm 3 mps 748 mmHg 71%
13:00 +27°C° 0.1 mm 3 mps 748 mmHg 68%
14:00 +27°C° 0 mm 3 mps 748 mmHg 67%
15:00 +28°C° 0 mm 2 mps 748 mmHg 65%
16:00 +28°C° 0 mm 2 mps 748 mmHg 64%
17:00 +27°C° 0.2 mm 2 mps 748 mmHg 69%
18:00 +26°C° 0.2 mm 2 mps 748 mmHg 74%
19:00 +25°C° 0.2 mm 2 mps 748 mmHg 80%
20:00 +24°C° 0.7 mm 2 mps 748 mmHg 84%
21:00 +23°C° 0.7 mm 2 mps 748 mmHg 88%
22:00 +20°C° 0.7 mm 2 mps 749 mmHg 92%
23:00 +20°C° 0.2 mm 2 mps 748 mmHg 92%

24 June, Thursday

Time Temperature Precipitation Wind Pressure Humidity
00:00 +20°C° 0.2 mm 2 mps 748 mmHg 92%
01:00 +19°C° 0.2 mm 2 mps 748 mmHg 92%
02:00 +19°C° 0 mm 2 mps 748 mmHg 93%
03:00 +19°C° 0 mm 2 mps 748 mmHg 94%
04:00 +19°C° 0 mm 2 mps 748 mmHg 94%
05:00 +20°C° 0 mm 2 mps 748 mmHg 91%
06:00 +21°C° 0 mm 2 mps 748 mmHg 87%
07:00 +24°C° 0 mm 2 mps 748 mmHg 84%
08:00 +25°C° 0 mm 2 mps 748 mmHg 78%
09:00 +27°C° 0 mm 2 mps 748 mmHg 72%
10:00 +28°C° 0 mm 2 mps 747 mmHg 67%
11:00 +29°C° 0.2 mm 2 mps 747 mmHg 63%
12:00 +30°C° 0.2 mm 2 mps 747 mmHg 59%
13:00 +31°C° 0.2 mm 2 mps 746 mmHg 55%
14:00 +31°C° 0.5 mm 2 mps 746 mmHg 58%
15:00 +30°C° 0.5 mm 2 mps 745 mmHg 61%
16:00 +29°C° 0.5 mm 2 mps 745 mmHg 65%
17:00 +28°C° 1.7 mm 2 mps 745 mmHg 72%
18:00 +26°C° 1.7 mm 2 mps 745 mmHg 78%
19:00 +25°C° 1.7 mm 2 mps 744 mmHg 85%
20:00 +24°C° 1.9 mm 2 mps 744 mmHg 87%
21:00 +21°C° 1.9 mm 2 mps 744 mmHg 90%
22:00 +20°C° 1.9 mm 2 mps 744 mmHg 92%
23:00 +20°C° 0.1 mm 2 mps 744 mmHg 93%

25 June, Friday

Time Temperature Precipitation Wind Pressure Humidity
00:00 +20°C° 0.1 mm 2 mps 744 mmHg 95%
01:00 +19°C° 0.1 mm 2 mps 744 mmHg 96%
02:00 +19°C° 0.3 mm 2 mps 744 mmHg 96%
03:00 +19°C° 0.3 mm 2 mps 744 mmHg 97%
04:00 +19°C° 0.3 mm 2 mps 744 mmHg 97%
05:00 +19°C° 0.2 mm 3 mps 744 mmHg 96%
06:00 +19°C° 0.2 mm 3 mps 744 mmHg 94%
07:00 +20°C° 0.2 mm 4 mps 744 mmHg 93%
08:00 +20°C° 0.2 mm 4 mps 744 mmHg 92%
09:00 +20°C° 0.2 mm 4 mps 745 mmHg 90%
10:00 +20°C° 0.2 mm 5 mps 745 mmHg 89%
11:00 +21°C° 0.1 mm 5 mps 745 mmHg 85%
12:00 +21°C° 0.1 mm 5 mps 745 mmHg 80%
13:00 +22°C° 0.1 mm 5 mps 745 mmHg 76%
14:00 +22°C° 0.1 mm 5 mps 745 mmHg 75%
15:00 +22°C° 0.1 mm 5 mps 745 mmHg 73%
16:00 +23°C° 0.1 mm 5 mps 745 mmHg 71%
17:00 +22°C° 0.2 mm 5 mps 745 mmHg 76%
18:00 +21°C° 0.2 mm 4 mps 745 mmHg 81%
19:00 +20°C° 0.2 mm 4 mps 745 mmHg 86%
20:00 +19°C° 0.2 mm 3 mps 746 mmHg 89%
21:00 +18°C° 0.2 mm 3 mps 746 mmHg 92%
22:00 +17°C° 0.2 mm 2 mps 746 mmHg 96%
23:00 +17°C° 0.1 mm 3 mps 746 mmHg 96%
Show more

We Need Your Consent

Meteoprog and our Service Providers may store and access personal data such as cookies, device identifiers or other similar technologies on your device and process such data to personalise content and ads, as well as provide social media features and to analyse the traffic.

  • Store and/or access information on your device

    Cookies, device identifiers or other information can be stored or accessed on your device for the purposes indicated above.

  • Personalised ads and content, ad and content measurement, audience insights, and products development

    Ads and content can be personalised based on a profile. More data can be added to better personalise ads and content. Ad and content performance can be measured. Insights about the audience who saw the ads and content can be derived. Such data can be used to develop or improve user’s experience, systems and software.

By clicking ‘I Agree’ you will allow the use of indicated cookies, device identifiers, web beacons or other similar technologies. Your settings can be changed in the browser on your device.

For certain purposes, legitimate interests may be relied on, rather than consent. You can read more about this in our Privacy and Cookie Policy.